Year,Month,Day,Hour,Minute,Value (Times are PST for temperature in C)
2013,03,29,00,00,6.00
2013,03,29,00,01,5.90
2013,03,29,00,02,5.90
2013,03,29,00,03,5.90
2013,03,29,00,04,5.90
2013,03,29,00,05,5.90
2013,03,29,00,06,5.90
2013,03,29,00,07,5.80
2013,03,29,00,08,5.80
2013,03,29,00,09,5.80
2013,03,29,00,10,5.80
2013,03,29,00,11,5.70
2013,03,29,00,12,5.70
2013,03,29,00,13,5.70
2013,03,29,00,14,5.70
2013,03,29,00,15,5.70
2013,03,29,00,16,5.60
2013,03,29,00,17,5.60
2013,03,29,00,18,5.60
2013,03,29,00,19,5.50
2013,03,29,00,20,5.50
2013,03,29,00,21,5.50
2013,03,29,00,22,5.50
2013,03,29,00,23,5.40
2013,03,29,00,24,5.40
2013,03,29,00,25,5.40
2013,03,29,00,26,5.40
2013,03,29,00,27,5.40
2013,03,29,00,28,5.40
2013,03,29,00,29,5.40
2013,03,29,00,30,5.40
2013,03,29,00,31,5.40
2013,03,29,00,32,5.40
2013,03,29,00,33,5.40
2013,03,29,00,34,5.40
2013,03,29,00,35,5.40
2013,03,29,00,36,5.40
2013,03,29,00,37,5.40
2013,03,29,00,38,5.40
2013,03,29,00,39,5.40
2013,03,29,00,40,5.30
2013,03,29,00,41,5.30
2013,03,29,00,42,5.30
2013,03,29,00,43,5.30
2013,03,29,00,44,5.30
2013,03,29,00,45,5.30
2013,03,29,00,46,5.30
2013,03,29,00,47,5.30
2013,03,29,00,48,5.30
2013,03,29,00,49,5.30
2013,03,29,00,50,5.30
2013,03,29,00,51,5.30
2013,03,29,00,52,5.30
2013,03,29,00,53,5.30
2013,03,29,00,54,5.30
2013,03,29,00,55,5.30
2013,03,29,00,56,5.30
2013,03,29,00,57,5.30
2013,03,29,00,58,5.30
2013,03,29,00,59,5.30
2013,03,29,01,00,5.30
2013,03,29,01,01,5.20
2013,03,29,01,02,5.20
2013,03,29,01,03,5.20
2013,03,29,01,04,5.10
2013,03,29,01,05,5.10
2013,03,29,01,06,5.10
2013,03,29,01,07,5.10
2013,03,29,01,08,5.00
2013,03,29,01,09,4.90
2013,03,29,01,10,4.90
2013,03,29,01,11,4.90
2013,03,29,01,12,4.90
2013,03,29,01,13,4.80
2013,03,29,01,14,4.80
2013,03,29,01,15,4.80
2013,03,29,01,16,4.80
2013,03,29,01,17,4.70
2013,03,29,01,18,4.70
2013,03,29,01,19,4.70
2013,03,29,01,20,4.70
2013,03,29,01,21,4.70
2013,03,29,01,22,4.70
2013,03,29,01,23,4.60
2013,03,29,01,24,4.60
2013,03,29,01,25,4.60
2013,03,29,01,26,4.60
2013,03,29,01,27,4.60
2013,03,29,01,28,4.60
2013,03,29,01,29,4.60
2013,03,29,01,30,4.70
2013,03,29,01,31,4.70
2013,03,29,01,32,4.70
2013,03,29,01,33,4.70
2013,03,29,01,34,4.70
2013,03,29,01,35,4.70
2013,03,29,01,36,4.70
2013,03,29,01,37,4.70
2013,03,29,01,38,4.80
2013,03,29,01,39,4.80
2013,03,29,01,40,4.80
2013,03,29,01,41,4.80
2013,03,29,01,42,4.80
2013,03,29,01,43,4.90
2013,03,29,01,44,4.90
2013,03,29,01,45,4.90
2013,03,29,01,46,4.90
2013,03,29,01,47,4.90
2013,03,29,01,48,4.90
2013,03,29,01,49,4.90
2013,03,29,01,50,4.90
2013,03,29,01,51,4.90
2013,03,29,01,52,4.90
2013,03,29,01,53,4.90
2013,03,29,01,54,4.90
2013,03,29,01,55,4.90
2013,03,29,01,56,4.90
2013,03,29,01,57,4.90
2013,03,29,01,58,4.90
2013,03,29,01,59,4.80
2013,03,29,02,00,4.80
2013,03,29,02,01,4.70
2013,03,29,02,02,4.70
2013,03,29,02,03,4.60
2013,03,29,02,04,4.60
2013,03,29,02,05,4.60
2013,03,29,02,06,4.50
2013,03,29,02,07,4.50
2013,03,29,02,08,4.40
2013,03,29,02,09,4.40
2013,03,29,02,10,4.40
2013,03,29,02,11,4.30
2013,03,29,02,12,4.30
2013,03,29,02,13,4.30
2013,03,29,02,14,4.30
2013,03,29,02,15,4.30
2013,03,29,02,16,4.30
2013,03,29,02,17,4.30
2013,03,29,02,18,4.30
2013,03,29,02,19,4.30
2013,03,29,02,20,4.30
2013,03,29,02,21,4.30
2013,03,29,02,22,4.30
2013,03,29,02,23,4.30
2013,03,29,02,24,4.30
2013,03,29,02,25,4.30
2013,03,29,02,26,4.20
2013,03,29,02,27,4.20
2013,03,29,02,28,4.20
2013,03,29,02,29,4.20
2013,03,29,02,30,4.20
2013,03,29,02,31,4.20
2013,03,29,02,32,4.20
2013,03,29,02,33,4.20
2013,03,29,02,34,4.20
2013,03,29,02,35,4.10
2013,03,29,02,36,4.10
2013,03,29,02,37,4.10
2013,03,29,02,38,4.10
2013,03,29,02,39,4.10
2013,03,29,02,40,4.10
2013,03,29,02,41,4.10
2013,03,29,02,42,4.10
2013,03,29,02,43,4.10
2013,03,29,02,44,4.10
2013,03,29,02,45,4.10
2013,03,29,02,46,4.10
2013,03,29,02,47,4.10
2013,03,29,02,48,4.10
2013,03,29,02,49,4.10
2013,03,29,02,50,4.10
2013,03,29,02,51,4.10
2013,03,29,02,52,4.10
2013,03,29,02,53,4.10
2013,03,29,02,54,4.00
2013,03,29,02,55,4.00
2013,03,29,02,56,4.00
2013,03,29,02,57,4.00
2013,03,29,02,58,4.00
2013,03,29,02,59,4.00
2013,03,29,03,00,4.00
2013,03,29,03,01,4.00
2013,03,29,03,02,4.10
2013,03,29,03,03,4.10
2013,03,29,03,04,4.10
2013,03,29,03,05,4.10
2013,03,29,03,06,4.10
2013,03,29,03,07,4.10
2013,03,29,03,08,4.10
2013,03,29,03,09,4.10
2013,03,29,03,10,4.10
2013,03,29,03,11,4.10
2013,03,29,03,12,4.10
2013,03,29,03,13,4.10
2013,03,29,03,14,4.10
2013,03,29,03,15,4.10
2013,03,29,03,16,4.10
2013,03,29,03,17,4.10
2013,03,29,03,18,4.10
2013,03,29,03,19,4.10
2013,03,29,03,20,4.00
2013,03,29,03,21,4.00
2013,03,29,03,22,4.00
2013,03,29,03,23,4.00
2013,03,29,03,24,4.00
2013,03,29,03,25,4.00
2013,03,29,03,26,4.00
2013,03,29,03,27,4.00
2013,03,29,03,28,4.00
2013,03,29,03,29,4.00
2013,03,29,03,30,4.00
2013,03,29,03,31,4.00
2013,03,29,03,32,4.00
2013,03,29,03,33,4.00
2013,03,29,03,34,4.00
2013,03,29,03,35,4.00
2013,03,29,03,36,4.00
2013,03,29,03,37,4.00
2013,03,29,03,38,4.00
2013,03,29,03,39,4.00
2013,03,29,03,40,4.00
2013,03,29,03,41,4.00
2013,03,29,03,42,4.00
2013,03,29,03,43,4.00
2013,03,29,03,44,3.90
2013,03,29,03,45,3.80
2013,03,29,03,46,3.80
2013,03,29,03,47,3.70
2013,03,29,03,48,3.70
2013,03,29,03,49,3.60
2013,03,29,03,50,3.60
2013,03,29,03,51,3.50
2013,03,29,03,52,3.50
2013,03,29,03,53,3.50
2013,03,29,03,54,3.40
2013,03,29,03,55,3.40
2013,03,29,03,56,3.40
2013,03,29,03,57,3.40
2013,03,29,03,58,3.40
2013,03,29,03,59,3.40
2013,03,29,04,00,3.40
2013,03,29,04,01,3.40
2013,03,29,04,02,3.50
2013,03,29,04,03,3.50
2013,03,29,04,04,3.50
2013,03,29,04,05,3.50
2013,03,29,04,06,3.60
2013,03,29,04,07,3.60
2013,03,29,04,08,3.60
2013,03,29,04,09,3.60
2013,03,29,04,10,3.60
2013,03,29,04,11,3.60
2013,03,29,04,12,3.60
2013,03,29,04,13,3.60
2013,03,29,04,14,3.60
2013,03,29,04,15,3.60
2013,03,29,04,16,3.60
2013,03,29,04,17,3.60
2013,03,29,04,18,3.60
2013,03,29,04,19,3.60
2013,03,29,04,20,3.60
2013,03,29,04,21,3.60
2013,03,29,04,22,3.60
2013,03,29,04,23,3.60
2013,03,29,04,24,3.60
2013,03,29,04,25,3.50
2013,03,29,04,26,3.50
2013,03,29,04,27,3.50
2013,03,29,04,28,3.40
2013,03,29,04,29,3.40
2013,03,29,04,30,3.40
2013,03,29,04,31,3.30
2013,03,29,04,32,3.30
2013,03,29,04,33,3.30
2013,03,29,04,34,3.30
2013,03,29,04,35,3.20
2013,03,29,04,36,3.20
2013,03,29,04,37,3.20
2013,03,29,04,38,3.20
2013,03,29,04,39,3.20
2013,03,29,04,40,3.20
2013,03,29,04,41,3.20
2013,03,29,04,42,3.20
2013,03,29,04,43,3.10
2013,03,29,04,44,3.10
2013,03,29,04,45,3.10
2013,03,29,04,46,3.10
2013,03,29,04,47,3.10
2013,03,29,04,48,3.10
2013,03,29,04,49,3.10
2013,03,29,04,50,3.10
2013,03,29,04,51,3.10
2013,03,29,04,52,3.10
2013,03,29,04,53,3.10
2013,03,29,04,54,3.10
2013,03,29,04,55,3.10
2013,03,29,04,56,3.10
2013,03,29,04,57,3.10
2013,03,29,04,58,3.10
2013,03,29,04,59,3.10
2013,03,29,05,00,3.10
2013,03,29,05,01,3.10
2013,03,29,05,02,3.20
2013,03,29,05,03,3.20
2013,03,29,05,04,3.20
2013,03,29,05,05,3.20
2013,03,29,05,06,3.20
2013,03,29,05,07,3.10
2013,03,29,05,08,3.10
2013,03,29,05,09,3.10
2013,03,29,05,10,3.10
2013,03,29,05,11,3.10
2013,03,29,05,12,3.10
2013,03,29,05,13,3.20
2013,03,29,05,14,3.20
2013,03,29,05,15,3.20
2013,03,29,05,16,3.30
2013,03,29,05,17,3.30
2013,03,29,05,18,3.30
2013,03,29,05,19,3.30
2013,03,29,05,20,3.30
2013,03,29,05,21,3.30
2013,03,29,05,22,3.30
2013,03,29,05,23,3.10
2013,03,29,05,24,3.10
2013,03,29,05,25,3.10
2013,03,29,05,26,3.10
2013,03,29,05,27,3.10
2013,03,29,05,28,3.10
2013,03,29,05,29,3.10
2013,03,29,05,30,3.10
2013,03,29,05,31,3.10
2013,03,29,05,32,3.10
2013,03,29,05,33,3.10
2013,03,29,05,34,3.10
2013,03,29,05,35,3.00
2013,03,29,05,36,2.90
2013,03,29,05,37,2.90
2013,03,29,05,38,2.90
2013,03,29,05,39,2.90
2013,03,29,05,40,2.90
2013,03,29,05,41,2.90
2013,03,29,05,42,2.90
2013,03,29,05,43,2.90
2013,03,29,05,44,2.90
2013,03,29,05,45,2.90
2013,03,29,05,46,2.90
2013,03,29,05,47,2.90
2013,03,29,05,48,2.90
2013,03,29,05,49,2.90
2013,03,29,05,50,2.80
2013,03,29,05,51,2.80
2013,03,29,05,52,2.80
2013,03,29,05,53,2.80
2013,03,29,05,54,2.80
2013,03,29,05,55,2.80
2013,03,29,05,56,2.70
2013,03,29,05,57,2.70
2013,03,29,05,58,2.70
2013,03,29,05,59,2.70
2013,03,29,06,00,2.70
2013,03,29,06,01,2.80
2013,03,29,06,02,2.80
2013,03,29,06,03,2.80
2013,03,29,06,04,2.80
2013,03,29,06,05,2.80
2013,03,29,06,06,2.80
2013,03,29,06,07,2.80
2013,03,29,06,08,2.80
2013,03,29,06,09,2.80
2013,03,29,06,10,2.80
2013,03,29,06,11,2.80
2013,03,29,06,12,2.80
2013,03,29,06,13,2.80
2013,03,29,06,14,2.80
2013,03,29,06,15,2.80
2013,03,29,06,16,2.80
2013,03,29,06,17,2.80
2013,03,29,06,18,2.80
2013,03,29,06,19,2.80
2013,03,29,06,20,2.80
2013,03,29,06,21,2.80
2013,03,29,06,22,2.80
2013,03,29,06,23,2.80
2013,03,29,06,24,2.80
2013,03,29,06,25,2.90
2013,03,29,06,26,2.90
2013,03,29,06,27,2.80
2013,03,29,06,28,2.80
2013,03,29,06,29,2.80
2013,03,29,06,30,2.80
2013,03,29,06,31,2.80
2013,03,29,06,32,2.80
2013,03,29,06,33,2.80
2013,03,29,06,34,2.70
2013,03,29,06,35,2.70
2013,03,29,06,36,2.70
2013,03,29,06,37,2.70
2013,03,29,06,38,2.70
2013,03,29,06,39,2.70
2013,03,29,06,40,2.60
2013,03,29,06,41,2.60
2013,03,29,06,42,2.60
2013,03,29,06,43,2.60
2013,03,29,06,44,2.60
2013,03,29,06,45,2.60
2013,03,29,06,46,2.60
2013,03,29,06,47,2.60
2013,03,29,06,48,2.60
2013,03,29,06,49,2.60
2013,03,29,06,50,2.60
2013,03,29,06,51,2.70
2013,03,29,06,52,2.70
2013,03,29,06,53,2.70
2013,03,29,06,54,2.70
2013,03,29,06,55,2.70
2013,03,29,06,56,2.70
2013,03,29,06,57,2.80
2013,03,29,06,58,2.80
2013,03,29,06,59,2.80
2013,03,29,07,00,2.80
2013,03,29,07,01,2.80
2013,03,29,07,02,2.80
2013,03,29,07,03,2.80
2013,03,29,07,04,2.90
2013,03,29,07,05,2.90
2013,03,29,07,06,2.90
2013,03,29,07,07,2.90
2013,03,29,07,08,2.90
2013,03,29,07,09,2.90
2013,03,29,07,10,2.90
2013,03,29,07,11,2.90
2013,03,29,07,12,2.80
2013,03,29,07,13,2.80
2013,03,29,07,14,2.80
2013,03,29,07,15,2.80
2013,03,29,07,16,2.70
2013,03,29,07,17,2.70
2013,03,29,07,18,2.70
2013,03,29,07,19,2.70
2013,03,29,07,20,2.70
2013,03,29,07,21,2.70
2013,03,29,07,22,2.70
2013,03,29,07,23,2.70
2013,03,29,07,24,2.70
2013,03,29,07,25,2.70
2013,03,29,07,26,2.70
2013,03,29,07,27,2.70
2013,03,29,07,28,2.70
2013,03,29,07,29,2.70
2013,03,29,07,30,2.70
2013,03,29,07,31,2.70
2013,03,29,07,32,2.70
2013,03,29,07,33,2.70
2013,03,29,07,34,2.70
2013,03,29,07,35,2.70
2013,03,29,07,36,2.70
2013,03,29,07,37,2.70
2013,03,29,07,38,2.70
2013,03,29,07,39,2.70
2013,03,29,07,40,2.70
2013,03,29,07,41,2.70
2013,03,29,07,42,2.70
2013,03,29,07,43,2.70
2013,03,29,07,44,2.70
2013,03,29,07,45,2.70
2013,03,29,07,46,2.70
2013,03,29,07,47,2.70
2013,03,29,07,48,2.70
2013,03,29,07,49,2.70
2013,03,29,07,50,2.70
2013,03,29,07,51,2.70
2013,03,29,07,52,2.70
2013,03,29,07,53,2.70
2013,03,29,07,54,2.70
2013,03,29,07,55,2.70
2013,03,29,07,56,2.70
2013,03,29,07,57,2.70
2013,03,29,07,58,2.70
2013,03,29,07,59,2.70
2013,03,29,08,00,2.70
2013,03,29,08,01,2.70
2013,03,29,08,02,2.70
2013,03,29,08,03,2.70
2013,03,29,08,04,2.70
2013,03,29,08,05,2.70
2013,03,29,08,06,2.70
2013,03,29,08,07,2.70
2013,03,29,08,08,2.80
2013,03,29,08,09,2.80
2013,03,29,08,10,2.80
2013,03,29,08,11,2.80
2013,03,29,08,12,2.80
2013,03,29,08,13,2.80
2013,03,29,08,14,2.90
2013,03,29,08,15,2.90
2013,03,29,08,16,2.90
2013,03,29,08,17,2.90
2013,03,29,08,18,2.90
2013,03,29,08,19,3.00
2013,03,29,08,20,3.10
2013,03,29,08,21,3.20
2013,03,29,08,22,3.30
2013,03,29,08,23,3.40
2013,03,29,08,24,3.40
2013,03,29,08,25,3.50
2013,03,29,08,26,3.60
2013,03,29,08,27,3.70
2013,03,29,08,28,3.80
2013,03,29,08,29,3.90
2013,03,29,08,30,4.00
2013,03,29,08,31,4.10
2013,03,29,08,32,4.20
2013,03,29,08,33,4.30
2013,03,29,08,34,4.30
2013,03,29,08,35,4.40
2013,03,29,08,36,4.40
2013,03,29,08,37,4.40
2013,03,29,08,38,4.50
2013,03,29,08,39,4.60
2013,03,29,08,40,4.70
2013,03,29,08,41,4.80
2013,03,29,08,42,4.80
2013,03,29,08,43,4.90
2013,03,29,08,44,5.00
2013,03,29,08,45,5.10
2013,03,29,08,46,5.20
2013,03,29,08,47,5.30
2013,03,29,08,48,5.30
2013,03,29,08,49,5.40
2013,03,29,08,50,5.50
2013,03,29,08,51,5.50
2013,03,29,08,52,5.60
2013,03,29,08,53,5.70
2013,03,29,08,54,5.70
2013,03,29,08,55,5.70
2013,03,29,08,56,5.80
2013,03,29,08,57,5.80
2013,03,29,08,58,5.90
2013,03,29,08,59,5.90
2013,03,29,09,00,5.90
2013,03,29,09,01,5.90
2013,03,29,09,02,6.00
2013,03,29,09,03,6.00
2013,03,29,09,04,6.00
2013,03,29,09,05,6.10
2013,03,29,09,06,6.20
2013,03,29,09,07,6.30
2013,03,29,09,08,6.50
2013,03,29,09,09,6.70
2013,03,29,09,10,6.80
2013,03,29,09,11,7.00
2013,03,29,09,12,7.00
2013,03,29,09,13,7.10
2013,03,29,09,14,7.10
2013,03,29,09,15,7.00
2013,03,29,09,16,7.00
2013,03,29,09,17,7.00
2013,03,29,09,18,7.00
2013,03,29,09,19,7.00
2013,03,29,09,20,7.00
2013,03,29,09,21,7.00
2013,03,29,09,22,7.00
2013,03,29,09,23,7.00
2013,03,29,09,24,7.00
2013,03,29,09,25,7.00
2013,03,29,09,26,7.00
2013,03,29,09,27,7.00
2013,03,29,09,28,7.00
2013,03,29,09,29,7.10
2013,03,29,09,30,7.20
2013,03,29,09,31,7.30
2013,03,29,09,32,7.30
2013,03,29,09,33,7.50
2013,03,29,09,34,7.60
2013,03,29,09,35,7.70
2013,03,29,09,36,7.80
2013,03,29,09,37,7.90
2013,03,29,09,38,8.00
2013,03,29,09,39,8.10
2013,03,29,09,40,8.20
2013,03,29,09,41,8.20
2013,03,29,09,42,8.30
2013,03,29,09,43,8.40
2013,03,29,09,44,8.50
2013,03,29,09,45,8.60
2013,03,29,09,46,8.70
2013,03,29,09,47,8.80
2013,03,29,09,48,8.90
2013,03,29,09,49,8.90
2013,03,29,09,50,9.00
2013,03,29,09,51,9.10
2013,03,29,09,52,9.10
2013,03,29,09,53,9.20
2013,03,29,09,54,9.30
2013,03,29,09,55,9.40
2013,03,29,09,56,9.40
2013,03,29,09,57,9.50
2013,03,29,09,58,9.50
2013,03,29,09,59,9.60
2013,03,29,10,00,9.60
2013,03,29,10,01,9.70
2013,03,29,10,02,9.70
2013,03,29,10,03,9.70
2013,03,29,10,04,9.70
2013,03,29,10,05,9.80
2013,03,29,10,06,9.80
2013,03,29,10,07,9.80
2013,03,29,10,08,9.90
2013,03,29,10,09,10.00
2013,03,29,10,10,10.10
2013,03,29,10,11,10.10
2013,03,29,10,12,10.20
2013,03,29,10,13,10.20
2013,03,29,10,14,10.20
2013,03,29,10,15,10.00
2013,03,29,10,16,9.90
2013,03,29,10,17,9.90
2013,03,29,10,18,9.90
2013,03,29,10,19,9.90
2013,03,29,10,20,10.00
2013,03,29,10,21,10.10
2013,03,29,10,22,10.10
2013,03,29,10,23,10.20
2013,03,29,10,24,10.20
2013,03,29,10,25,10.20
2013,03,29,10,26,10.30
2013,03,29,10,27,10.30
2013,03,29,10,28,10.40
2013,03,29,10,29,10.50
2013,03,29,10,30,10.60
2013,03,29,10,31,10.60
2013,03,29,10,32,10.60
2013,03,29,10,33,10.60
2013,03,29,10,34,10.60
2013,03,29,10,35,10.60
2013,03,29,10,36,10.70
2013,03,29,10,37,10.70
2013,03,29,10,38,10.60
2013,03,29,10,39,10.60
2013,03,29,10,40,10.60
2013,03,29,10,41,10.60
2013,03,29,10,42,10.60
2013,03,29,10,43,10.60
2013,03,29,10,44,10.60
2013,03,29,10,45,10.70
2013,03,29,10,46,10.70
2013,03,29,10,47,10.70
2013,03,29,10,48,10.80
2013,03,29,10,49,10.80
2013,03,29,10,50,10.80
2013,03,29,10,51,10.80
2013,03,29,10,52,10.90
2013,03,29,10,53,10.90
2013,03,29,10,54,10.90
2013,03,29,10,55,10.90
2013,03,29,10,56,10.90
2013,03,29,10,57,10.90
2013,03,29,10,58,10.90
2013,03,29,10,59,10.90
2013,03,29,11,00,10.90
2013,03,29,11,01,11.00
2013,03,29,11,02,11.00
2013,03,29,11,03,10.90
2013,03,29,11,04,10.90
2013,03,29,11,05,10.80
2013,03,29,11,06,10.80
2013,03,29,11,07,10.80
2013,03,29,11,08,10.80
2013,03,29,11,09,10.80
2013,03,29,11,10,10.70
2013,03,29,11,11,10.70
2013,03,29,11,12,10.80
2013,03,29,11,13,10.80
2013,03,29,11,14,10.90
2013,03,29,11,15,10.90
2013,03,29,11,16,11.00
2013,03,29,11,17,11.10
2013,03,29,11,18,11.20
2013,03,29,11,19,11.30
2013,03,29,11,20,11.30
2013,03,29,11,21,11.30
2013,03,29,11,22,11.40
2013,03,29,11,23,11.50
2013,03,29,11,24,11.50
2013,03,29,11,25,11.40
2013,03,29,11,26,11.40
2013,03,29,11,27,11.50
2013,03,29,11,28,11.60
2013,03,29,11,29,11.60
2013,03,29,11,30,11.60
2013,03,29,11,31,11.70
2013,03,29,11,32,11.70
2013,03,29,11,33,11.80
2013,03,29,11,34,11.80
2013,03,29,11,35,11.80
2013,03,29,11,36,11.80
2013,03,29,11,37,11.80
2013,03,29,11,38,11.70
2013,03,29,11,39,11.70
2013,03,29,11,40,11.70
2013,03,29,11,41,11.70
2013,03,29,11,42,11.80
2013,03,29,11,43,11.80
2013,03,29,11,44,11.90
2013,03,29,11,45,11.90
2013,03,29,11,46,12.00
2013,03,29,11,47,12.00
2013,03,29,11,48,12.00
2013,03,29,11,49,12.00
2013,03,29,11,50,12.00
2013,03,29,11,51,12.00
2013,03,29,11,52,12.00
2013,03,29,11,53,11.90
2013,03,29,11,54,11.90
2013,03,29,11,55,11.90
2013,03,29,11,56,11.90
2013,03,29,11,57,11.90
2013,03,29,11,58,12.00
2013,03,29,11,59,12.00
2013,03,29,12,00,11.90
2013,03,29,12,01,11.80
2013,03,29,12,02,11.80
2013,03,29,12,03,11.80
2013,03,29,12,04,11.80
2013,03,29,12,05,11.80
2013,03,29,12,06,11.60
2013,03,29,12,07,11.50
2013,03,29,12,08,11.40
2013,03,29,12,09,11.40
2013,03,29,12,10,11.40
2013,03,29,12,11,11.40
2013,03,29,12,12,11.40
2013,03,29,12,13,11.40
2013,03,29,12,14,11.40
2013,03,29,12,15,11.30
2013,03,29,12,16,11.30
2013,03,29,12,17,11.30
2013,03,29,12,18,11.40
2013,03,29,12,19,11.30
2013,03,29,12,20,11.20
2013,03,29,12,21,11.10
2013,03,29,12,22,11.00
2013,03,29,12,23,10.90
2013,03,29,12,24,10.90
2013,03,29,12,25,10.90
2013,03,29,12,26,10.90
2013,03,29,12,27,10.80
2013,03,29,12,28,10.80
2013,03,29,12,29,10.70
2013,03,29,12,30,10.60
2013,03,29,12,31,10.60
2013,03,29,12,32,10.60
2013,03,29,12,33,10.50
2013,03,29,12,34,10.50
2013,03,29,12,35,10.40
2013,03,29,12,36,10.40
2013,03,29,12,37,10.40
2013,03,29,12,38,10.50
2013,03,29,12,39,10.40
2013,03,29,12,40,10.40
2013,03,29,12,41,10.30
2013,03,29,12,42,10.10
2013,03,29,12,43,10.10
2013,03,29,12,44,10.10
2013,03,29,12,45,10.10
2013,03,29,12,46,10.10
2013,03,29,12,47,10.10
2013,03,29,12,48,10.20
2013,03,29,12,49,10.20
2013,03,29,12,50,10.10
2013,03,29,12,51,10.30
2013,03,29,12,52,10.40
2013,03,29,12,53,10.40
2013,03,29,12,54,10.40
2013,03,29,12,55,10.40
2013,03,29,12,56,10.40
2013,03,29,12,57,10.40
2013,03,29,12,58,10.30
2013,03,29,12,59,10.40
2013,03,29,13,00,10.40
2013,03,29,13,01,10.40
2013,03,29,13,02,10.40
2013,03,29,13,03,10.40
2013,03,29,13,04,10.40
2013,03,29,13,05,10.30
2013,03,29,13,06,10.20
2013,03,29,13,07,10.10
2013,03,29,13,08,10.10
2013,03,29,13,09,10.00
2013,03,29,13,10,9.90
2013,03,29,13,11,9.90
2013,03,29,13,12,9.90
2013,03,29,13,13,9.80
2013,03,29,13,14,9.70
2013,03,29,13,15,9.80
2013,03,29,13,16,9.90
2013,03,29,13,17,10.10
2013,03,29,13,18,10.20
2013,03,29,13,19,10.30
2013,03,29,13,20,10.50
2013,03,29,13,21,10.50
2013,03,29,13,22,10.40
2013,03,29,13,23,10.50
2013,03,29,13,24,10.60
2013,03,29,13,25,10.70
2013,03,29,13,26,10.70
2013,03,29,13,27,10.80
2013,03,29,13,28,10.90
2013,03,29,13,29,10.90
2013,03,29,13,30,10.90
2013,03,29,13,31,10.80
2013,03,29,13,32,10.80
2013,03,29,13,33,10.80
2013,03,29,13,34,10.80
2013,03,29,13,35,10.80
2013,03,29,13,36,10.90
2013,03,29,13,37,10.90
2013,03,29,13,38,10.90
2013,03,29,13,39,10.90
2013,03,29,13,40,11.00
2013,03,29,13,41,11.10
2013,03,29,13,42,11.20
2013,03,29,13,43,11.30
2013,03,29,13,44,11.30
2013,03,29,13,45,11.50
2013,03,29,13,46,11.60
2013,03,29,13,47,11.60
2013,03,29,13,48,11.60
2013,03,29,13,49,11.60
2013,03,29,13,50,11.60
2013,03,29,13,51,11.60
2013,03,29,13,52,11.70
2013,03,29,13,53,11.70
2013,03,29,13,54,11.70
2013,03,29,13,55,11.70
2013,03,29,13,56,11.80
2013,03,29,13,57,11.80
2013,03,29,13,58,11.80
2013,03,29,13,59,11.90
2013,03,29,14,00,11.90
2013,03,29,14,01,12.00
2013,03,29,14,02,12.00
2013,03,29,14,03,12.00
2013,03,29,14,04,12.00
2013,03,29,14,05,12.00
2013,03,29,14,06,12.00
2013,03,29,14,07,12.00
2013,03,29,14,08,12.10
2013,03,29,14,09,12.10
2013,03,29,14,10,12.20
2013,03,29,14,11,12.30
2013,03,29,14,12,12.30
2013,03,29,14,13,12.30
2013,03,29,14,14,12.40
2013,03,29,14,15,12.50
2013,03,29,14,16,12.60
2013,03,29,14,17,12.70
2013,03,29,14,18,12.80
2013,03,29,14,19,12.80
2013,03,29,14,20,13.00
2013,03,29,14,21,13.10
2013,03,29,14,22,13.20
2013,03,29,14,23,13.30
2013,03,29,14,24,13.30
2013,03,29,14,25,13.30
2013,03,29,14,26,13.40
2013,03,29,14,27,13.50
2013,03,29,14,28,13.50
2013,03,29,14,29,13.50
2013,03,29,14,30,13.60
2013,03,29,14,31,13.70
2013,03,29,14,32,13.70
2013,03,29,14,33,13.70
2013,03,29,14,34,13.60
2013,03,29,14,35,13.50
2013,03,29,14,36,13.60
2013,03,29,14,37,13.60
2013,03,29,14,38,13.50
2013,03,29,14,39,13.50
2013,03,29,14,40,13.40
2013,03,29,14,41,13.40
2013,03,29,14,42,13.30
2013,03,29,14,43,13.40
2013,03,29,14,44,13.40
2013,03,29,14,45,13.40
2013,03,29,14,46,13.40
2013,03,29,14,47,13.40
2013,03,29,14,48,13.50
2013,03,29,14,49,13.50
2013,03,29,14,50,13.40
2013,03,29,14,51,13.30
2013,03,29,14,52,13.30
2013,03,29,14,53,13.30
2013,03,29,14,54,13.20
2013,03,29,14,55,13.20
2013,03,29,14,56,13.20
2013,03,29,14,57,13.20
2013,03,29,14,58,13.10
2013,03,29,14,59,13.00
2013,03,29,15,00,12.90
2013,03,29,15,01,12.90
2013,03,29,15,02,12.80
2013,03,29,15,03,12.80
2013,03,29,15,04,12.80
2013,03,29,15,05,12.80
2013,03,29,15,06,12.80
2013,03,29,15,07,12.90
2013,03,29,15,08,12.90
2013,03,29,15,09,12.90
2013,03,29,15,10,12.90
2013,03,29,15,11,12.90
2013,03,29,15,12,13.00
2013,03,29,15,13,13.00
2013,03,29,15,14,12.90
2013,03,29,15,15,12.90
2013,03,29,15,16,12.80
2013,03,29,15,17,12.80
2013,03,29,15,18,12.80
2013,03,29,15,19,12.80
2013,03,29,15,20,12.70
2013,03,29,15,21,12.70
2013,03,29,15,22,12.60
2013,03,29,15,23,12.50
2013,03,29,15,24,12.50
2013,03,29,15,25,12.60
2013,03,29,15,26,12.60
2013,03,29,15,27,12.60
2013,03,29,15,28,12.70
2013,03,29,15,29,12.80
2013,03,29,15,30,12.80
2013,03,29,15,31,12.80
2013,03,29,15,32,12.80
2013,03,29,15,33,12.80
2013,03,29,15,34,12.90
2013,03,29,15,35,12.90
2013,03,29,15,36,12.90
2013,03,29,15,37,12.80
2013,03,29,15,38,12.70
2013,03,29,15,39,12.70
2013,03,29,15,40,12.60
2013,03,29,15,41,12.60
2013,03,29,15,42,12.50
2013,03,29,15,43,12.40
2013,03,29,15,44,12.40
2013,03,29,15,45,12.30
2013,03,29,15,46,12.30
2013,03,29,15,47,12.10
2013,03,29,15,48,12.00
2013,03,29,15,49,12.00
2013,03,29,15,50,12.00
2013,03,29,15,51,11.90
2013,03,29,15,52,11.90
2013,03,29,15,53,11.90
2013,03,29,15,54,12.00
2013,03,29,15,55,12.00
2013,03,29,15,56,12.00
2013,03,29,15,57,12.10
2013,03,29,15,58,12.00
2013,03,29,15,59,12.00
2013,03,29,16,00,12.00
2013,03,29,16,01,12.00
2013,03,29,16,02,12.00
2013,03,29,16,03,12.00
2013,03,29,16,04,12.00
2013,03,29,16,05,11.90
2013,03,29,16,06,11.90
2013,03,29,16,07,11.90
2013,03,29,16,08,12.00
2013,03,29,16,09,12.00
2013,03,29,16,10,12.10
2013,03,29,16,11,12.20
2013,03,29,16,12,12.30
2013,03,29,16,13,12.40
2013,03,29,16,14,12.50
2013,03,29,16,15,12.60
2013,03,29,16,16,12.60
2013,03,29,16,17,12.50
2013,03,29,16,18,12.50
2013,03,29,16,19,12.50
2013,03,29,16,20,12.50
2013,03,29,16,21,12.50
2013,03,29,16,22,12.50
2013,03,29,16,23,12.50
2013,03,29,16,24,12.40
2013,03,29,16,25,12.40
2013,03,29,16,26,12.40
2013,03,29,16,27,12.30
2013,03,29,16,28,12.30
2013,03,29,16,29,12.30
2013,03,29,16,30,12.30
2013,03,29,16,31,12.40
2013,03,29,16,32,12.40
2013,03,29,16,33,12.50
2013,03,29,16,34,12.60
2013,03,29,16,35,12.70
2013,03,29,16,36,12.70
2013,03,29,16,37,12.80
2013,03,29,16,38,12.80
2013,03,29,16,39,12.80
2013,03,29,16,40,12.70
2013,03,29,16,41,12.70
2013,03,29,16,42,12.70
2013,03,29,16,43,12.70
2013,03,29,16,44,12.70
2013,03,29,16,45,12.70
2013,03,29,16,46,12.60
2013,03,29,16,47,12.70
2013,03,29,16,48,12.70
2013,03,29,16,49,12.80
2013,03,29,16,50,12.80
2013,03,29,16,51,12.90
2013,03,29,16,52,13.00
2013,03,29,16,53,13.00
2013,03,29,16,54,13.00
2013,03,29,16,55,12.90
2013,03,29,16,56,12.90
2013,03,29,16,57,12.80
2013,03,29,16,58,12.80
2013,03,29,16,59,12.70
2013,03,29,17,00,12.60
2013,03,29,17,01,12.50
2013,03,29,17,02,12.50
2013,03,29,17,03,12.50
2013,03,29,17,04,12.50
2013,03,29,17,05,12.50
2013,03,29,17,06,12.50
2013,03,29,17,07,12.60
2013,03,29,17,08,12.60
2013,03,29,17,09,12.50
2013,03,29,17,10,12.50
2013,03,29,17,11,12.50
2013,03,29,17,12,12.50
2013,03,29,17,13,12.60
2013,03,29,17,14,12.60
2013,03,29,17,15,12.50
2013,03,29,17,16,12.50
2013,03,29,17,17,12.50
2013,03,29,17,18,12.50
2013,03,29,17,19,12.40
2013,03,29,17,20,12.40
2013,03,29,17,21,12.40
2013,03,29,17,22,12.30
2013,03,29,17,23,12.30
2013,03,29,17,24,12.30
2013,03,29,17,25,12.30
2013,03,29,17,26,12.30
2013,03,29,17,27,12.30
2013,03,29,17,28,12.30
2013,03,29,17,29,12.30
2013,03,29,17,30,12.30
2013,03,29,17,31,12.30
2013,03,29,17,32,12.30
2013,03,29,17,33,12.30
2013,03,29,17,34,12.40
2013,03,29,17,35,12.40
2013,03,29,17,36,12.40
2013,03,29,17,37,12.30
2013,03,29,17,38,12.30
2013,03,29,17,39,12.40
2013,03,29,17,40,12.40
2013,03,29,17,41,12.50
2013,03,29,17,42,12.60
2013,03,29,17,43,12.60
2013,03,29,17,44,12.60
2013,03,29,17,45,12.60
2013,03,29,17,46,12.60